Location: Clanezzo
(45.7500°N, 9.6000°E)
Time: 18:57:08
(UTC+00:00)

Cosmos 2369 Rocket - Visible Passes

Search period start: 24 September 2021 00:00
Search period end: 04 October 2021 00:00
Orbit: 830 x 851 km, 71.0° (Epoch: 23 September)

Date Brightness Start Highest point End Pass type
(mag) Time Alt. Az. Time Alt. Az. Time Alt. Az.
24 Sep 4.1 03:07:39 10° N 03:12:34 30° NE 03:17:27 10° ESE visible
24 Sep 2.7 18:01:11 10° S 18:06:17 36° ESE 18:11:22 10° NE visible
24 Sep 3.5 19:44:58 10° WSW 19:50:15 39° NW 19:55:32 10° NNE visible
25 Sep 4.1 02:52:18 10° N 02:57:09 29° NE 03:01:57 10° ESE visible
25 Sep 2.3 04:36:01 10° NW 04:41:26 51° WSW 04:46:49 10° S visible
25 Sep 2.8 17:45:54 10° SSE 17:50:56 34° ESE 17:55:57 10° NE visible
25 Sep 3.4 19:29:31 10° SW 19:34:51 41° NW 19:40:11 10° NNE visible
26 Sep 4.2 02:36:58 10° N 02:41:44 28° NE 02:46:28 10° ESE visible
26 Sep 2.3 04:20:37 10° NW 04:26:04 54° WSW 04:31:29 10° S visible
26 Sep 3.4 19:14:05 10° SW 19:19:27 43° NW 19:24:49 10° NNE visible
26 Sep 5.3 21:04:09 10° NW 21:05:04 10° NNW 21:05:59 10° NNW visible
27 Sep 4.2 02:21:37 10° N 02:26:19 26° NE 02:30:58 10° ESE visible
27 Sep 2.2 04:05:13 10° NNW 04:10:43 57° WSW 04:16:09 10° S visible
27 Sep 3.3 18:58:38 10° SW 19:04:02 45° WNW 19:09:28 10° NNE visible
27 Sep 5.2 20:48:15 10° NW 20:49:37 11° NW 20:50:59 10° NNW visible
28 Sep 4.2 02:06:17 10° N 02:10:53 25° NE 02:15:28 10° ESE visible
28 Sep 2.1 03:49:49 10° NNW 03:55:20 61° WSW 04:00:49 10° S visible
28 Sep 3.2 18:43:12 10° SW 18:48:38 48° WNW 18:54:06 10° NNE visible
28 Sep 5.2 20:32:28 10° NW 20:34:09 11° NW 20:35:51 10° NNW visible
29 Sep 4.3 01:50:57 10° N 01:55:28 24° NE 01:59:57 10° ESE visible
29 Sep 2.1 03:34:25 10° NNW 03:39:58 64° WSW 03:45:29 10° SSE visible
29 Sep 3.1 18:27:45 10° SW 18:33:15 50° WNW 18:38:44 10° NNE visible
29 Sep 5.1 20:16:44 10° NW 20:18:42 12° NW 20:20:41 10° NNW visible
30 Sep 4.3 01:35:37 10° N 01:40:02 23° NE 01:44:26 10° E visible
30 Sep 2.0 03:19:02 10° NNW 03:24:36 68° WSW 03:30:08 10° SSE visible
30 Sep 3.1 18:12:21 10° SW 18:17:51 53° WNW 18:23:22 10° NNE visible
30 Sep 5.1 20:01:02 10° WNW 20:03:15 12° NW 20:05:29 10° NNW visible
01 Oct 4.3 01:20:17 10° N 01:24:37 22° NE 01:28:55 10° E visible
01 Oct 2.0 03:03:38 10° NNW 03:09:14 72° WSW 03:14:47 10° SSE visible
01 Oct 3.0 17:56:55 10° SW 18:02:27 56° WNW 18:08:00 10° NNE visible
01 Oct 5.0 19:45:22 10° WNW 19:47:48 13° NW 19:50:15 10° N visible
02 Oct 4.4 01:04:58 10° N 01:09:12 21° NE 01:13:23 10° E visible
02 Oct 2.0 02:48:15 10° NNW 02:53:51 76° WSW 02:59:25 10° SSE visible
02 Oct 3.8 04:36:13 11° W 04:36:51 11° W 04:38:08 10° WSW visible
02 Oct 2.9 17:41:30 10° SW 17:47:04 59° WNW 17:52:38 10° NNE visible
02 Oct 5.0 19:29:43 10° WNW 19:32:22 13° NW 19:35:00 10° N visible
03 Oct 4.8 00:49:39 10° N 00:50:56 14° N 00:50:56 14° N visible
03 Oct4.602:44:17SSE02:44:17SSE02:32:35NNWvisible
03 Oct 2.8 17:26:05 10° SW 17:31:41 62° WNW 17:37:16 10° NNE visible
03 Oct 4.9 19:14:06 10° WNW 19:16:54 14° NW 19:19:45 10° N visible
